Change the Weather History Date:

Sunday, December 16, 2012

  Actual Average Record
Temperature  
Mean Temperature 40 °F -  
Max Temperature 44 °F 33 °F 57 °F (1959)
Min Temperature 35 °F 20 °F -11 °F (1951)
Degree Days  
Heating Degree Days 26    
Moisture  
Dew Point 38 °F    
Average Humidity 90    
Maximum Humidity 100    
Minimum Humidity 81    
Precipitation  
Precipitation 0.01 in - - ()
Sea Level Pressure  
Sea Level Pressure 29.60 in    
Wind  
Wind Speed 6 mph (WSW)    
Max Wind Speed 17 mph    
Max Gust Speed 18 mph    
Visibility 7 miles    
Events Rain    
Averages and records for this station are not official NWS values.
T = Trace of Precipitation, MM = Missing Value Source: NWS Daily Summary

Daily Weather History Graph

Daily Weather History Graph

Search for Another Location

Airport or City:

Trip Planner

Search our weather history database for the weather conditions in past years. The results will help you decide how hot, cold, wet, or windy it might be!

Date:

Astronomy

Dec. 16, 2012 Rise Set
Actual Time 7:17 AM CST 4:18 PM CST
Civil Twilight 6:45 AM CST 4:50 PM CST
Nautical Twilight 6:09 AM CST 5:26 PM CST
Astronomical Twilight 5:34 AM CST 6:01 PM CST
Moon 9:46 AM CST (12/16) 8:37 PM CST (12/16)
Length of Visible Light 10h 05m
Length of Day
9h 00m
Waxing Crescent, 16% of the Moon is Illuminated
Dec 16
Waxing Crescent
Dec 19
First Quarter
Dec 28
Full
Jan 4
Last Quarter
Jan 11
New

Hourly Weather History & Observations

Time (CST) Temp. Windchill Dew Point Humidity Pressure Visibility Wind Dir Wind Speed Gust Speed Precip Events Conditions
12:15 AM 44.6 °F - 42.8 °F 93% 29.55 in 5.0 mi Calm Calm - N/A   Overcast
12:55 AM 44.6 °F 43.1 °F 42.8 °F 93% 29.54 in 3.0 mi SSW 3.5 mph - N/A   Overcast
1:15 AM 44.6 °F 43.1 °F 42.8 °F 93% 29.54 in 3.0 mi SSW 3.5 mph - N/A   Overcast
1:35 AM 44.6 °F 43.1 °F 42.8 °F 93% 29.53 in 4.0 mi SSW 3.5 mph - N/A   Overcast
1:55 AM 44.6 °F 43.1 °F 42.8 °F 93% 29.54 in 3.0 mi South 3.5 mph - N/A   Overcast
2:15 AM 44.6 °F 43.1 °F 42.8 °F 93% 29.54 in 2.5 mi South 3.5 mph - N/A   Drizzle
2:55 AM 44.6 °F 41.4 °F 42.8 °F 93% 29.53 in 2.5 mi South 5.8 mph - N/A   Drizzle
3:15 AM 44.6 °F 43.1 °F 42.8 °F 93% 29.53 in 1.8 mi South 3.5 mph - N/A   Heavy Drizzle
3:35 AM 44.6 °F 43.1 °F 42.8 °F 93% 29.53 in 1.5 mi South 3.5 mph - N/A Rain Rain
3:55 AM 44.6 °F 41.4 °F 42.8 °F 93% 29.53 in 2.0 mi South 5.8 mph - 0.01 in   Drizzle
4:15 AM 44.6 °F 39.2 °F 44.6 °F 100% 29.52 in 3.0 mi SSW 10.4 mph - N/A   Light Drizzle
4:35 AM 44.6 °F 40.2 °F 42.8 °F 93% 29.52 in 5.0 mi SW 8.1 mph - N/A Rain Light Rain
4:55 AM 44.6 °F 39.2 °F 42.8 °F 93% 29.52 in 3.0 mi SW 10.4 mph - N/A Rain Light Rain
5:15 AM 44.6 °F 39.7 °F 42.8 °F 93% 29.52 in 7.0 mi SW 9.2 mph - N/A   Overcast
5:35 AM 44.6 °F 39.2 °F 42.8 °F 93% 29.53 in 7.0 mi SW 10.4 mph - N/A   Overcast
5:55 AM 44.6 °F 39.2 °F 41.0 °F 87% 29.53 in 7.0 mi SW 10.4 mph 16.1 mph N/A   Overcast
7:45 AM 42.8 °F 35.4 °F 41.0 °F 93% 29.55 in 5.0 mi WSW 15.0 mph 18.4 mph N/A   Overcast
8:45 AM 42.8 °F 37.0 °F 41.0 °F 93% 29.56 in 2.5 mi WSW 10.4 mph - N/A   Overcast
9:45 AM 42.8 °F 37.5 °F 41.0 °F 93% 29.58 in 2.5 mi WSW 9.2 mph - N/A   Overcast
10:45 AM 42.8 °F 37.0 °F 41.0 °F 93% 29.59 in 10.0 mi West 10.4 mph 16.1 mph N/A   Overcast
11:45 AM 42.8 °F 35.8 °F 39.2 °F 87% 29.58 in 3.0 mi WSW 13.8 mph - N/A   Overcast
12:45 PM 41.0 °F 34.7 °F 37.4 °F 87% 29.58 in 4.0 mi West 10.4 mph 17.3 mph N/A   Overcast
1:45 PM 39.2 °F 32.0 °F 37.4 °F 93% 29.58 in 5.0 mi West 11.5 mph - N/A   Overcast
2:45 PM 39.2 °F 32.0 °F 37.4 °F 93% 29.60 in 7.0 mi West 11.5 mph 17.3 mph N/A   Overcast
3:45 PM 39.2 °F 32.0 °F 35.6 °F 87% 29.62 in 10.0 mi West 11.5 mph - N/A   Overcast
4:45 PM 37.4 °F 27.8 °F 33.8 °F 87% 29.62 in 10.0 mi WNW 17.3 mph - N/A   Overcast
5:45 PM 37.4 °F 29.8 °F 33.8 °F 87% 29.64 in 10.0 mi NW 11.5 mph - N/A   Overcast
6:45 PM 37.4 °F 30.3 °F 33.8 °F 87% 29.67 in 10.0 mi West 10.4 mph - N/A   Overcast
7:45 PM 37.4 °F 30.8 °F 32.0 °F 81% 29.69 in 10.0 mi West 9.2 mph - N/A   Overcast
8:15 PM 35.6 °F 29.2 °F 32.0 °F 87% 29.70 in 10.0 mi West 8.1 mph - N/A   Overcast
8:35 PM 35.6 °F 28.6 °F 32.0 °F 87% 29.70 in 10.0 mi WNW 9.2 mph - N/A   Overcast
8:45 PM 35.6 °F 30.7 °F 32.0 °F 87% 29.70 in 10.0 mi West 5.8 mph - N/A   Overcast
8:55 PM 35.6 °F 30.7 °F 32.0 °F 87% 29.70 in 10.0 mi West 5.8 mph - N/A   Overcast
9:15 PM 35.6 °F 29.9 °F 32.0 °F 87% 29.71 in 10.0 mi WSW 6.9 mph - N/A   Overcast
9:35 PM 35.6 °F 29.9 °F 32.0 °F 87% 29.70 in 10.0 mi West 6.9 mph - N/A   Overcast
9:55 PM 35.6 °F 29.9 °F 32.0 °F 87% 29.70 in 10.0 mi West 6.9 mph - N/A   Overcast
10:15 PM 35.6 °F 30.7 °F 32.0 °F 87% 29.70 in 10.0 mi West 5.8 mph - N/A   Overcast
10:35 PM 35.6 °F 29.9 °F 32.0 °F 87% 29.69 in 10.0 mi West 6.9 mph - N/A   Overcast
10:55 PM 35.6 °F 29.9 °F 32.0 °F 87% 29.69 in 10.0 mi West 6.9 mph - N/A   Overcast
11:15 PM 35.6 °F 30.7 °F 32.0 °F 87% 29.69 in 10.0 mi West 5.8 mph - N/A   Overcast
11:55 PM 35.6 °F 29.9 °F 32.0 °F 87% 29.70 in 10.0 mi West 6.9 mph - N/A   Overcast